Lexington Weather

Lexington, Massachusetts, USA

36°F
1/28/2020 5:46am 
  • Lexington Conditions: Overcast
  • Temperature: 36.3°F / 2.4°CWarmer 0.3°F than last hour.
  • Dew Point: 29.8°FIncreased 0.3°Fsince last hour.
  • Relative Humidity: 77
  • Wind: Wind from NNW NNW Calm, 10-min avg: 2 mph, gust: 5 mph
  • Barometer: 29.64 inRising 0.02  inHg/hr Rising Slowly
  • Visibility: 10 miles
  • Rain Today: 0.00 in
  •   

Regional Weather Roundup
for Boston / Norton, MA

        
000
ASUS41 KBOX 260410
RWRBOX

REGIONAL WEATHER ROUNDUP
NATIONAL WEATHER SERVICE BOSTON/NORTON MA
1100 PM EST SAT JAN 25 2020

NOTE:  "FAIR" INDICATES FEW OR NO CLOUDS BELOW 12,000 FEET WITH NO 
SIGNIFICANT WEATHER AND/OR OBSTRUCTIONS TO VISIBILITY.

MAZALL-260500-
EASTERN MASSACHUSETTS
  
CITY           SKY/WX    TMP DP  RH WIND       PRES   REMARKS
BOSTON         CLOUDY    49  45  86 SE10      29.70F FOG              
BEVERLY        CLOUDY    47  45  93 SE17G26   29.70F                  
LAWRENCE       CLOUDY    47  45  93 VRB5      29.72F                  
BEDFORD        FOG       45  43  93 NE3       29.68F VSB 1/2          
BLUE HILL        N/A     49  49 100 S18G37    29.67F                  
NORWOOD        LGT RAIN  54  49  83 S6        29.69F                  
MARSHFIELD     LGT RAIN  48  48 100 SE12G17   29.68F                  
PLYMOUTH       CLOUDY    51  50  96 VRB7      29.71F                  
TAUNTON        LGT RAIN  51  50  96 S8        29.70F FOG              
NEW BEDFORD    CLOUDY    50  32  50 S12       29.71F FOG              
$$

MAZALL-260500-
CAPE COD AND THE ISLANDS
  
CITY           SKY/WX    TMP DP  RH WIND       PRES   REMARKS
FALMOUTH       LGT RAIN  48  50 100 S23       29.73F                  
HYANNIS        RAIN      49  47  93 SE10G20   29.72F FOG              
CHATHAM        LGT RAIN  49  49 100 S13G24    29.75F FOG              
PROVINCETOWN   LGT RAIN  49  48  97 SE15G24   29.73F                  
NANTUCKET      LGT RAIN  48  47  96 SE20      29.73F VSB 1            
MARTHAS VNYRD  LGT RAIN  51  50  96 S15G24    29.71F                  
$$
 
MAZALL-260500-
CENTRAL AND WESTERN MASSACHUSETTS
  
CITY           SKY/WX    TMP DP  RH WIND       PRES   REMARKS
WORCESTER      FOG       40  40 100 N7        29.68F VSB 3/4          
FITCHBURG      CLOUDY    38  37  97 W7        29.71F FOG              
ORANGE         FOG       38  36  92 N5        29.70F VSB 3/4          
SPRINGFIELD    LGT RAIN  40  40  99 NE6       29.69F FOG              
WESTFIELD      CLOUDY    39  38  96 NE3       29.70F FOG              
NORTH ADAMS    LGT RAIN  39  36  89 E7        29.71S                  
PITTSFIELD     LGT RAIN  38  36  92 SW6       29.69S FOG              
$$
 
RIZALL-260500-
RHODE ISLAND
  
CITY           SKY/WX    TMP DP  RH WIND       PRES   REMARKS
PROVIDENCE     CLOUDY    50  50 100 SW8       29.70F FOG              
NEWPORT        CLOUDY    49  47  93 VRB6      29.70F FOG              
BLOCK ISLAND   LGT RAIN  44  44 100 W13       29.73F VSB 1/2          
SMITHFIELD     CLOUDY    48  48 100 SW7       29.68F FOG              
WESTERLY       CLOUDY    50  46  86 SW8       29.72F                  
$$
 
CTZALL-260500-
CONNECTICUT
  
CITY           SKY/WX    TMP DP  RH WIND       PRES   REMARKS
BRADLEY INTL   DRIZZLE   41  39  93 W5        29.71F FOG              
HARTFORD       CLOUDY    41  40  96 CALM      29.73R FOG              
BRIDGEPORT     MOCLDY    42  41  96 SW7       29.74S FOG              
DANBURY        CLOUDY    40  38  93 W6        29.74S                  
GROTON         CLOUDY    47  47 100 SW7       29.72S                  
NEW HAVEN      CLOUDY    44  44 100 VRB3      29.73S FOG              
CHESTER        FOG       48  48 100 VRB6      29.71S VSB 3/4          
MERIDEN        CLOUDY    41  40  96 CALM      29.73R FOG              
WILLIMANTIC    CLOUDY    48  47  96 S6        29.71F                  
OXFORD         FOG       41  41 100 VRB5      29.72R VSB 1/4          
$$

MEZ002-015-021-024-NHZ003-005-008-011-012-014-VTZ005-008-260500-
NORTHERN NEW ENGLAND
  
CITY           SKY/WX    TMP DP  RH WIND       PRES   REMARKS
PORTLAND ME    HVY RAIN  41  38  89 E20G32    29.81F FOG     WCI  32  
BANGOR ME      CLOUDY    35  32  88 E7        29.99F WCI  29          
CONCORD NH     LGT RAIN  38  36  92 VRB6      29.74F FOG              
MANCHESTER NH  LGT RAIN  41  40  96 N7        29.71F FOG              
NASHUA NH      LGT RAIN  41  41 100 W5        29.72F FOG              
PORTSMOUTH NH  RAIN      46  45  97 E18G26    29.72  FOG              
JAFFREY NH     LGT RAIN  38  37  97 CALM      29.71F FOG              
KEENE NH       LGT RAIN  39  37  92 NW5       29.71F                  
BURLINGTON VT  LGT RAIN  33  32  96 NW3       29.73  FOG              
MT. WASHINGTON SLEET     19  19 100 SE56G64     N/A  VSB 0   WCI  -5  
$$

NYZ052-076-260500-
EASTERN NEW YORK
  
CITY           SKY/WX    TMP DP  RH WIND       PRES   REMARKS
ALBANY         LGT RAIN  38  35  89 CALM      29.76S FOG              
NEW YORK CITY  FAIR      43  37  79 W14       29.78R                  
$$
 
ANZALL-260500-
MARINE OBSERVATIONS
  
STATION/POSITION TIME  TEMP    WIND        PRES    VSBY  WAVE
                       AIR SEA DIR/SP/G                  HT/PER
                 (UTC) (F)     (DEG/KT/KT) (MB)    (MI)  (FT/S)
BOSTON BUOY      0350   45 44  130/ 16/ 19 1005.9F         8/ 8
BUZZARDS BAY     0300   50     160/ 22/ 24 1006.4F
NANTUCKET SOUND  0340                        N/A           3/ 5
MASS BAY-STELLWA 0304   45 42  150/ 21/ 25 1005.0F  1 1/4 11/ 8
ISLE OF SHOALS   0300   45     110/ 31/ 35 1006.1F
S OF BLOCK IS    0330      44                N/A           8/ 8
$$

......................KEY.........................
  SKY/WX - SKY CONDITION/PRESENT WEATHER
  TMP    - TEMPERATURE IN FAHRENHEIT
  DWPT   - DEWPOINT IN FAHRENHEIT
  RH     - RELATIVE HUMIDITY IN PERCENT
  WIND   - DIRECTION AND SPEED IN MPH
  PRES   - MEAN SEA LEVEL PRESSURE IN INCHES OF HG
  WCI    - WIND CHILL INDEX
  VSB    - VISIBILITY IN MILES
  HX     - HEAT INDEX
  TC     - TEMPERATURE IN CELSIUS
  VRB    - VARIABLE WIND DIRECTION
  N/A    - NOT AVAILABLE
  
      

Other recent Regional Weather Roundups

Tue Jan 28, 5:10am

Tue Jan 28, 5:00am

Tue Jan 28, 4:10am

Tue Jan 28, 4:00am

Tue Jan 28, 3:10am

Tue Jan 28, 3:01am

Tue Jan 28, 2:10am

Tue Jan 28, 2:00am

Tue Jan 28, 1:10am

Tue Jan 28, 1:00am

Tue Jan 28, 12:10am

Tue Jan 28, 12:01am

Mon Jan 27, 11:10pm

Mon Jan 27, 11:00pm

Mon Jan 27, 10:10pm

Mon Jan 27, 10:00pm

Mon Jan 27, 9:10pm

Mon Jan 27, 9:00pm

Mon Jan 27, 8:10pm

Mon Jan 27, 8:01pm

Mon Jan 27, 7:10pm

Mon Jan 27, 7:00pm

Mon Jan 27, 6:10pm

Mon Jan 27, 6:00pm

Mon Jan 27, 5:10pm

Mon Jan 27, 5:00pm

Mon Jan 27, 4:10pm

Mon Jan 27, 4:00pm

Mon Jan 27, 3:10pm

Mon Jan 27, 3:00pm

Mon Jan 27, 2:10pm

Mon Jan 27, 2:00pm

Mon Jan 27, 1:10pm

Mon Jan 27, 1:00pm

Mon Jan 27, 12:10pm

Mon Jan 27, 12:00pm

Mon Jan 27, 11:10am

Mon Jan 27, 11:01am

Mon Jan 27, 10:10am

Mon Jan 27, 10:00am

Mon Jan 27, 9:10am

Mon Jan 27, 9:00am

Mon Jan 27, 8:10am

Mon Jan 27, 8:00am

Mon Jan 27, 7:10am

Mon Jan 27, 7:00am

Mon Jan 27, 6:10am

Mon Jan 27, 6:00am

Mon Jan 27, 5:10am

Mon Jan 27, 5:00am

Mon Jan 27, 4:10am

Mon Jan 27, 4:01am

Mon Jan 27, 3:10am

Mon Jan 27, 3:00am

Mon Jan 27, 2:10am

Mon Jan 27, 2:00am

Mon Jan 27, 1:10am

Mon Jan 27, 1:00am

Mon Jan 27, 12:10am

Mon Jan 27, 12:00am

Sun Jan 26, 11:10pm

Sun Jan 26, 11:00pm

Sun Jan 26, 10:10pm

Sun Jan 26, 10:00pm

Sun Jan 26, 9:10pm

Sun Jan 26, 9:01pm

Sun Jan 26, 8:10pm

Sun Jan 26, 8:00pm

Sun Jan 26, 7:10pm

Sun Jan 26, 7:00pm

Sun Jan 26, 6:10pm

Sun Jan 26, 6:01pm

Sun Jan 26, 5:10pm

Sun Jan 26, 5:01pm

Sun Jan 26, 4:10pm

Sun Jan 26, 4:00pm

Sun Jan 26, 3:10pm

Sun Jan 26, 3:01pm

Sun Jan 26, 2:10pm

Sun Jan 26, 2:01pm

Sun Jan 26, 1:10pm

Sun Jan 26, 1:00pm

Sun Jan 26, 12:10pm

Sun Jan 26, 12:00pm

Sun Jan 26, 11:10am

Sun Jan 26, 11:01am

Sun Jan 26, 10:10am

Sun Jan 26, 10:01am

Sun Jan 26, 9:10am

Sun Jan 26, 9:00am

Sun Jan 26, 8:10am

Sun Jan 26, 8:00am

Sun Jan 26, 7:10am

Sun Jan 26, 7:00am

Sun Jan 26, 6:10am

Sun Jan 26, 6:00am

Sun Jan 26, 5:10am

Sun Jan 26, 5:00am

Sun Jan 26, 4:10am

Sun Jan 26, 4:01am

Sun Jan 26, 3:10am

Sun Jan 26, 3:01am

Sun Jan 26, 2:10am

Sun Jan 26, 2:00am

Sun Jan 26, 1:10am

Sun Jan 26, 1:00am

Sun Jan 26, 12:10am

Sun Jan 26, 12:00am

Sat Jan 25, 11:00pm

Sat Jan 25, 10:10pm

Sat Jan 25, 10:01pm

Sat Jan 25, 9:10pm

Sat Jan 25, 9:01pm

Sat Jan 25, 8:10pm

Sat Jan 25, 8:01pm

Sat Jan 25, 7:10pm

Sat Jan 25, 7:01pm

Sat Jan 25, 6:10pm

Sat Jan 25, 6:01pm

Sat Jan 25, 5:10pm

Sat Jan 25, 5:01pm

Sat Jan 25, 4:10pm

Sat Jan 25, 4:00pm

Sat Jan 25, 3:10pm

Sat Jan 25, 3:01pm

Sat Jan 25, 2:10pm

Sat Jan 25, 2:00pm

Sat Jan 25, 1:10pm

Sat Jan 25, 1:00pm

Sat Jan 25, 12:10pm

Sat Jan 25, 12:00pm

Sat Jan 25, 11:10am

Sat Jan 25, 11:00am

Sat Jan 25, 10:10am

Sat Jan 25, 10:00am

Sat Jan 25, 9:10am

Sat Jan 25, 9:00am

Sat Jan 25, 8:10am

Sat Jan 25, 8:01am

Sat Jan 25, 7:10am

Sat Jan 25, 7:00am

Sat Jan 25, 6:10am

Sat Jan 25, 6:00am

Meta data:

ID: 4965e954-fd6d-47bd-8900-95f62da79a15
Link: https://api.weather.gov/products/4965e954-fd6d-47bd-8900-95f62da79a15